,,,PA_Meas_PMT16A,,PR_Meas_QMR101_102,,RH_Meas_QMH101,,SR_Meas_QMS101,,TA_Meas_QMH101,,GenWind,,GenWind,
date,time,status,PA,status,PR,status,RH,status,SR,status,TA,status,DirAvg,status,SpdAvg,
2012-08-10, 07:55:04,VALID,1007.09,VALID,0,VALID,93.4309,VALID,132.533,VALID,23.7212,INVALID,360,INVALID,0,
2012-08-10, 07:56:04,VALID,1007.09,VALID,0,VALID,93.6521,VALID,134.979,VALID,23.7212,VALID,220,VALID,0.370703,
2012-08-10, 07:57:04,VALID,1007.07,VALID,0,VALID,93.82,VALID,137.506,VALID,23.7601,VALID,219,VALID,0,
2012-08-10, 07:58:04,VALID,1007.09,VALID,0,VALID,93.6064,VALID,140.277,VALID,23.7407,VALID,264,VALID,0.514453,
2012-08-10, 07:59:04,VALID,1007.09,VALID,0,VALID,93.5301,VALID,142.478,VALID,23.7601,VALID,238,VALID,0.0605469,
2012-08-10, 08:00:04,VALID,1007.06,VALID,0,VALID,93.2097,VALID,144.678,VALID,23.7619,VALID,246,VALID,0.291406,
2012-08-10, 08:01:04,VALID,1007.07,VALID,0,VALID,92.9045,VALID,146.553,VALID,23.7212,VALID,206,VALID,0.134766,
2012-08-10, 08:02:04,VALID,1007.03,VALID,0,VALID,92.6909,VALID,148.591,VALID,23.7407,VALID,260,VALID,0.842578,
2012-08-10, 08:03:04,VALID,1007.06,VALID,0,VALID,92.7672,VALID,150.465,VALID,23.7389,VALID,218,VALID,0.120312,
2012-08-10, 08:04:04,VALID,1007.05,VALID,0,VALID,92.6833,VALID,152.422,VALID,23.7601,VALID,297,VALID,0.595312,
2012-08-10, 08:05:04,VALID,1007.06,VALID,0,VALID,92.5078,VALID,153.4,VALID,23.7991,VALID,296,VALID,0.377344,
2012-08-10, 08:06:04,VALID,1007.04,VALID,0,VALID,92.8206,VALID,153.807,VALID,23.8575,VALID,288,VALID,0.230859,
2012-08-10, 08:07:04,VALID,1007.04,VALID,0,VALID,92.1645,VALID,153.4,VALID,23.838,VALID,279,VALID,0.469531,
2012-08-10, 08:08:04,VALID,1007.02,VALID,0,VALID,92.6299,VALID,152.177,VALID,23.9177,VALID,279,VALID,0,
2012-08-10, 08:09:04,VALID,1007,VALID,0,VALID,92.4849,VALID,150.71,VALID,23.9548,VALID,271,VALID,0.541016,
2012-08-10, 08:10:04,VALID,1007.01,VALID,0,VALID,92.546,VALID,149.406,VALID,23.9548,VALID,238,VALID,0.351953,
2012-08-10, 08:11:04,VALID,1007,VALID,0,VALID,92.5078,VALID,148.672,VALID,24.0132,VALID,316,VALID,0.205859,
2012-08-10, 08:12:04,VALID,1006.99,VALID,0,VALID,92.1721,VALID,148.102,VALID,24.0521,VALID,210,VALID,0.183594,
2012-08-10, 08:13:04,VALID,1007,VALID,0,VALID,91.2796,VALID,148.102,VALID,24.0132,VALID,234,VALID,0.853906,
2012-08-10, 08:14:04,VALID,1007.03,VALID,0,VALID,91.989,VALID,148.183,VALID,24.0326,VALID,238,VALID,0.00585938,
2012-08-10, 08:15:04,VALID,1007,VALID,0,VALID,91.0583,VALID,148.346,VALID,24.091,VALID,234,VALID,0.773828,
2012-08-10, 08:16:04,VALID,1007,VALID,0,VALID,90.5701,VALID,148.917,VALID,24.0326,VALID,233,VALID,0.812109,
2012-08-10, 08:17:05,VALID,1007.01,VALID,0,VALID,91.2414,VALID,149.732,VALID,24.0521,VALID,285,VALID,0.691797,
2012-08-10, 08:18:05,VALID,1007.01,VALID,0,VALID,90.3412,VALID,150.384,VALID,24.0716,VALID,209,VALID,0.665625,
2012-08-10, 08:19:05,VALID,1007.01,VALID,0,VALID,87.7474,VALID,151.199,VALID,24.0539,VALID,220,VALID,1.28398,
2012-08-10, 08:20:05,VALID,1007.02,VALID,0,VALID,86.4734,VALID,152.014,VALID,23.9937,VALID,223,VALID,1.50937,
2012-08-10, 08:21:05,VALID,1007.04,VALID,0,VALID,88.0831,VALID,153.074,VALID,24.0132,VALID,232,VALID,0.605469,
2012-08-10, 08:22:05,VALID,1007.04,VALID,0,VALID,88.4416,VALID,154.052,VALID,24.0539,VALID,284,VALID,0.728125,
2012-08-10, 08:23:05,VALID,1007.07,VALID,0,VALID,88.5866,VALID,154.948,VALID,24.1123,VALID,346,VALID,0.328125,
2012-08-10, 08:24:05,VALID,1007.08,VALID,0,VALID,89.1053,VALID,155.438,VALID,24.1494,VALID,345,VALID,0.0894531,
2012-08-10, 08:25:05,VALID,1007.06,VALID,0,VALID,88.2967,VALID,155.927,VALID,24.1865,VALID,289,VALID,0.56875,
2012-08-10, 08:26:05,VALID,1007.09,VALID,0,VALID,88.228,VALID,155.927,VALID,24.2486,VALID,259,VALID,0.0675781,
2012-08-10, 08:27:05,VALID,1007.07,VALID,0,VALID,88.1136,VALID,155.519,VALID,24.2662,VALID,253,VALID,0.156641,
2012-08-10, 08:28:05,VALID,1007.09,VALID,0,VALID,86.9998,VALID,154.541,VALID,24.3246,VALID,248,VALID,0.569141,
2012-08-10, 08:29:05,VALID,1007.08,VALID,0,VALID,86.5496,VALID,152.911,VALID,24.3265,VALID,323,VALID,0.7,
2012-08-10, 08:30:05,VALID,1007.09,VALID,0,VALID,87.0532,VALID,150.628,VALID,24.3849,VALID,215,VALID,0.663672,
2012-08-10, 08:31:05,VALID,1007.1,VALID,0,VALID,86.4428,VALID,147.939,VALID,24.3441,VALID,233,VALID,0.782812,
2012-08-10, 08:32:05,VALID,1007.09,VALID,0,VALID,86.069,VALID,145.249,VALID,24.3849,VALID,217,VALID,0.689453,
2012-08-10, 08:33:05,VALID,1007.09,VALID,0,VALID,87.221,VALID,142.315,VALID,24.4043,VALID,196,VALID,0.636719,
2012-08-10, 08:34:05,VALID,1007.1,VALID,0,VALID,88.022,VALID,139.462,VALID,24.4433,VALID,182,VALID,0.428516,
2012-08-10, 08:35:05,VALID,1007.09,VALID,0,VALID,86.6336,VALID,136.527,VALID,24.4433,VALID,222,VALID,0.844531,
2012-08-10, 08:36:05,VALID,1007.05,VALID,0,VALID,86.6793,VALID,133.919,VALID,24.4628,VALID,199,VALID,0.416797,
2012-08-10, 08:37:05,VALID,1007.04,VALID,0,VALID,87.2896,VALID,131.881,VALID,24.5017,VALID,207,VALID,0.474609,
2012-08-10, 08:38:05,VALID,1007.03,VALID,0,VALID,86.9387,VALID,130.577,VALID,24.5017,VALID,207,VALID,0.610156,
2012-08-10, 08:39:05,VALID,1007.02,VALID,0,VALID,86.275,VALID,129.599,VALID,24.5212,VALID,212,VALID,1.11172,
2012-08-10, 08:40:05,VALID,1006.99,VALID,0,VALID,86.7861,VALID,129.355,VALID,24.5972,VALID,210,VALID,0.323047,
2012-08-10, 08:41:05,VALID,1006.98,VALID,0,VALID,86.4581,VALID,129.681,VALID,24.6361,VALID,171,VALID,0.982422,
2012-08-10, 08:42:05,VALID,1006.95,VALID,0,VALID,85.9851,VALID,130.577,VALID,24.675,VALID,212,VALID,0.967578,
2012-08-10, 08:43:05,VALID,1006.94,VALID,0,VALID,84.2839,VALID,131.963,VALID,24.6732,VALID,224,VALID,1.6668,
2012-08-10, 08:44:05,VALID,1006.93,VALID,0,VALID,86.6488,VALID,133.919,VALID,24.7529,VALID,172,VALID,0.559375,
2012-08-10, 08:45:05,VALID,1006.94,VALID,0,VALID,85.9546,VALID,136.446,VALID,24.7919,VALID,209,VALID,0.567578,
2012-08-10, 08:46:05,VALID,1006.92,VALID,0,VALID,84.3525,VALID,139.38,VALID,24.7529,VALID,200,VALID,1.8418,
2012-08-10, 08:47:05,VALID,1006.92,VALID,0,VALID,86.2674,VALID,142.885,VALID,24.8308,VALID,218,VALID,0.247656,
2012-08-10, 08:48:05,VALID,1006.88,VALID,0,VALID,86.3742,VALID,146.553,VALID,24.8308,VALID,205,VALID,0.575,
2012-08-10, 08:49:05,VALID,1006.84,VALID,0,VALID,85.3672,VALID,150.71,VALID,24.8503,VALID,250,VALID,0.955078,
2012-08-10, 08:50:05,VALID,1006.81,VALID,0,VALID,85.535,VALID,155.03,VALID,24.8697,VALID,222,VALID,0.903906,
2012-08-10, 08:51:05,VALID,1006.78,VALID,0,VALID,85.3672,VALID,159.92,VALID,24.8892,VALID,212,VALID,0.798437,
2012-08-10, 08:52:05,VALID,1006.73,VALID,0,VALID,84.5967,VALID,164.974,VALID,24.9087,VALID,208,VALID,1.18125,
2012-08-10, 08:53:05,VALID,1006.7,VALID,0,VALID,85.6876,VALID,170.68,VALID,24.9282,VALID,195,VALID,0.321875,
2012-08-10, 08:54:05,VALID,1006.69,VALID,0,VALID,84.4288,VALID,176.874,VALID,24.9476,VALID,242,VALID,1.26719,
2012-08-10, 08:55:05,VALID,1006.65,VALID,0,VALID,85.3595,VALID,183.966,VALID,24.9866,VALID,265,VALID,0.735937,
2012-08-10, 08:56:05,VALID,1006.65,VALID,0,VALID,83.7575,VALID,191.872,VALID,25.045,VALID,233,VALID,1.22031,
2012-08-10, 08:57:05,VALID,1006.66,VALID,0,VALID,84.1923,VALID,201.409,VALID,25.0644,VALID,228,VALID,0.886719,
2012-08-10, 08:58:05,VALID,1006.63,VALID,0,VALID,84.0169,VALID,211.923,VALID,25.1229,VALID,229,VALID,1.13125,
2012-08-10, 08:59:05,VALID,1006.62,VALID,0,VALID,83.1624,VALID,223.579,VALID,25.1423,VALID,235,VALID,2.01445,
2012-08-10, 09:00:05,VALID,1006.61,VALID,0,VALID,84.8866,VALID,229.448,VALID,25.2007,VALID,196,VALID,0.75,
2012-08-10, 09:01:05,VALID,1006.63,VALID,0,VALID,84.9705,VALID,253.982,VALID,25.2397,VALID,209,VALID,0.675391,
2012-08-10, 09:02:05,VALID,1006.64,VALID,0,VALID,84.2,VALID,249.662,VALID,25.2981,VALID,179,VALID,1.34766,
2012-08-10, 09:03:05,VALID,1006.62,VALID,0,VALID,85.2756,VALID,251.781,VALID,25.337,VALID,218,VALID,0.799609,
2012-08-10, 09:04:05,VALID,1006.64,VALID,0,VALID,85.6571,VALID,260.747,VALID,25.4344,VALID,188,VALID,0.495703,
2012-08-10, 09:05:05,VALID,1006.62,VALID,0,VALID,85.5045,VALID,273.218,VALID,25.4734,VALID,184,VALID,0.844141,
2012-08-10, 09:06:05,VALID,1006.63,VALID,0,VALID,83.6202,VALID,287.4,VALID,25.5318,VALID,181,VALID,1.54766,
2012-08-10, 09:07:05,VALID,1006.65,VALID,0,VALID,83.6354,VALID,302.48,VALID,25.5532,VALID,185,VALID,1.61836,
2012-08-10, 09:08:05,VALID,1006.67,VALID,0,VALID,83.0938,VALID,316.092,VALID,25.5727,VALID,195,VALID,1.78633,
2012-08-10, 09:09:05,VALID,1006.64,VALID,0,VALID,84.467,VALID,328.807,VALID,25.6292,VALID,188,VALID,1.13359,
2012-08-10, 09:10:05,VALID,1006.65,VALID,0,VALID,82.5826,VALID,341.604,VALID,25.6895,VALID,193,VALID,2.21406,
2012-08-10, 09:11:05,VALID,1006.63,VALID,0,VALID,83.7041,VALID,355.542,VALID,25.7265,VALID,186,VALID,1.46016,
2012-08-10, 09:12:05,VALID,1006.64,VALID,0,VALID,82.3843,VALID,370.703,VALID,25.8064,VALID,229,VALID,1.33164,
2012-08-10, 09:13:05,VALID,1006.61,VALID,0,VALID,83.7575,VALID,388.634,VALID,25.9038,VALID,219,VALID,1.2207,
2012-08-10, 09:14:05,VALID,1006.62,VALID,0,VALID,83.7727,VALID,409.99,VALID,26.0381,VALID,176,VALID,1.27617,
2012-08-10, 09:15:05,VALID,1006.57,VALID,0,VALID,83.0785,VALID,420.423,VALID,26.1765,VALID,183,VALID,0.449219,
2012-08-10, 09:16:05,VALID,1006.59,VALID,0,VALID,83.7804,VALID,432.079,VALID,26.2933,VALID,213,VALID,0.747266,
2012-08-10, 09:17:05,VALID,1006.56,VALID,0,VALID,80.7136,VALID,470.469,VALID,26.3303,VALID,179,VALID,1.60508,
2012-08-10, 09:18:05,VALID,1006.57,VALID,0,VALID,80.6678,VALID,445.039,VALID,26.3713,VALID,174,VALID,2.22344,
2012-08-10, 09:19:05,VALID,1006.6,VALID,0,VALID,79.2183,VALID,450.337,VALID,26.3693,VALID,198,VALID,1.45,
2012-08-10, 09:20:05,VALID,1006.58,VALID,0,VALID,79.9278,VALID,458.406,VALID,26.3303,VALID,200,VALID,2.24805,
2012-08-10, 09:21:05,VALID,1006.53,VALID,0,VALID,79.9964,VALID,540.404,VALID,26.3538,VALID,185,VALID,2.15703,
2012-08-10, 09:22:05,VALID,1006.53,VALID,0,VALID,80.3855,VALID,616.696,VALID,26.3713,VALID,199,VALID,2.26602,
2012-08-10, 09:23:05,VALID,1006.51,VALID,0,VALID,81.6519,VALID,584.5,VALID,26.3907,VALID,195,VALID,2.6125,
2012-08-10, 09:24:05,VALID,1006.46,VALID,0,VALID,82.3232,VALID,644.083,VALID,26.4707,VALID,166,VALID,1.5457,
2012-08-10, 09:25:05,VALID,1006.42,VALID,0,VALID,82.3614,VALID,620.364,VALID,26.646,VALID,191,VALID,1.78945,
2012-08-10, 09:26:05,VALID,1006.39,VALID,0,VALID,79.9659,VALID,761.864,VALID,26.7239,VALID,195,VALID,2.57266,
2012-08-10, 09:27:05,VALID,1006.33,VALID,0,VALID,81.1865,VALID,770.504,VALID,26.7804,VALID,182,VALID,1.74414,
2012-08-10, 09:28:05,VALID,1006.3,VALID,0,VALID,80.5991,VALID,768.466,VALID,26.9167,VALID,173,VALID,2.09648,
2012-08-10, 09:29:05,VALID,1006.25,VALID,0,VALID,77.7688,VALID,929.283,VALID,27.0142,VALID,184,VALID,2.12383,
2012-08-10, 09:30:05,VALID,1006.19,VALID,0,VALID,79.9888,VALID,646.773,VALID,27.1875,VALID,221,VALID,1.72656,
2012-08-10, 09:31:05,VALID,1006.15,VALID,0,VALID,76.7694,VALID,756.892,VALID,27.2264,VALID,175,VALID,2.58867,
2012-08-10, 09:32:05,VALID,1006.13,VALID,0,VALID,78.0968,VALID,886.409,VALID,27.168,VALID,188,VALID,2.99141,
2012-08-10, 09:33:05,VALID,1006.1,VALID,0,VALID,76.6474,VALID,952.106,VALID,27.209,VALID,200,VALID,1.8582,
2012-08-10, 09:34:05,VALID,1006.08,VALID,0,VALID,78.2189,VALID,881.111,VALID,27.1895,VALID,185,VALID,2.22266,
2012-08-10, 09:35:05,VALID,1006.07,VALID,0,VALID,78.1121,VALID,810.932,VALID,27.209,VALID,224,VALID,2.22891,
2012-08-10, 09:36:05,VALID,1006.05,VALID,0,VALID,76.5711,VALID,871.412,VALID,27.168,VALID,216,VALID,1.98984,
2012-08-10, 09:37:05,VALID,1006.04,VALID,0,VALID,75.442,VALID,853.398,VALID,27.1875,VALID,181,VALID,2.34531,
2012-08-10, 09:38:05,VALID,1006.02,VALID,0,VALID,78.6232,VALID,837.26,VALID,27.2869,VALID,198,VALID,1.67813,
2012-08-10, 09:39:05,VALID,1006.01,VALID,0,VALID,74.5036,VALID,823.811,VALID,27.3064,VALID,214,VALID,3.04258,
2012-08-10, 09:40:05,VALID,1005.98,VALID,0,VALID,77.3645,VALID,816.882,VALID,27.2675,VALID,194,VALID,2.67891,
2012-08-10, 09:41:05,VALID,1005.93,VALID,0,VALID,78.1731,VALID,808.161,VALID,27.3064,VALID,195,VALID,1.58594,
2012-08-10, 09:42:05,VALID,1005.9,VALID,0,VALID,76.5329,VALID,804.982,VALID,27.3454,VALID,208,VALID,2.76172,
2012-08-10, 09:43:05,VALID,1005.9,VALID,0,VALID,76.8152,VALID,795.038,VALID,27.4233,VALID,190,VALID,2.49062,
2012-08-10, 09:44:05,VALID,1005.86,VALID,0,VALID,77.9138,VALID,783.708,VALID,27.5208,VALID,195,VALID,1.7668,
2012-08-10, 09:45:05,VALID,1005.88,VALID,0,VALID,78.1426,VALID,780.611,VALID,27.7546,VALID,176,VALID,0.770703,
2012-08-10, 09:46:05,VALID,1005.85,VALID,0,VALID,75.0987,VALID,777.024,VALID,27.8521,VALID,235,VALID,2.05781,
2012-08-10, 09:47:05,VALID,1005.92,VALID,0,VALID,74.229,VALID,707.416,VALID,27.7741,VALID,209,VALID,2.54063,
2012-08-10, 09:48:05,VALID,1005.91,VALID,0,VALID,75.3047,VALID,676.524,VALID,27.6398,VALID,185,VALID,2.10352,
2012-08-10, 09:49:05,VALID,1005.9,VALID,0,VALID,75.1674,VALID,689.076,VALID,27.6788,VALID,187,VALID,1.57813,
2012-08-10, 09:50:05,VALID,1005.82,VALID,0,VALID,73.3364,VALID,680.844,VALID,27.6962,VALID,201,VALID,2.425,
2012-08-10, 09:51:05,VALID,1005.82,VALID,0,VALID,77.5323,VALID,767.406,VALID,27.7372,VALID,203,VALID,2.37188,
2012-08-10, 09:52:05,VALID,1005.78,VALID,0,VALID,73.4051,VALID,766.591,VALID,27.7178,VALID,216,VALID,2.11016,
2012-08-10, 09:53:05,VALID,1005.72,VALID,0,VALID,75.1521,VALID,772.134,VALID,27.6983,VALID,225,VALID,2.95703,
2012-08-10, 09:54:05,VALID,1005.77,VALID,0,VALID,77.4026,VALID,765.369,VALID,27.7762,VALID,183,VALID,2.0375,
2012-08-10, 09:55:05,VALID,1005.69,VALID,0,VALID,75.4801,VALID,765.043,VALID,27.7372,VALID,228,VALID,2.41484,
2012-08-10, 09:56:05,VALID,1005.7,VALID,0,VALID,75.5412,VALID,765.043,VALID,27.7762,VALID,184,VALID,2.8625,
2012-08-10, 09:57:05,VALID,1005.65,VALID,0,VALID,75.1445,VALID,765.776,VALID,27.6788,VALID,182,VALID,2.12734,
2012-08-10, 09:58:05,VALID,1005.65,VALID,0,VALID,75.3962,VALID,764.065,VALID,27.7957,VALID,210,VALID,2.22344,
2012-08-10, 09:59:05,VALID,1005.64,VALID,0,VALID,75.3733,VALID,768.385,VALID,27.7178,VALID,216,VALID,2.61797,
2012-08-10, 10:00:05,VALID,1005.68,VALID,0,VALID,75.6404,VALID,767.08,VALID,27.6983,VALID,197,VALID,2.75156,
2012-08-10, 10:01:05,VALID,1005.61,VALID,0,VALID,74.6028,VALID,767.732,VALID,27.6767,VALID,217,VALID,1.89805,
2012-08-10, 10:02:05,VALID,1005.66,VALID,0,VALID,74.1298,VALID,768.14,VALID,27.7546,VALID,200,VALID,2.13359,
2012-08-10, 10:03:05,VALID,1005.65,VALID,0,VALID,75.77,VALID,768.792,VALID,27.7372,VALID,209,VALID,1.86172,
2012-08-10, 10:04:05,VALID,1005.63,VALID,0,VALID,77.1051,VALID,770.178,VALID,27.7936,VALID,218,VALID,1.70859,
2012-08-10, 10:05:05,VALID,1005.66,VALID,0,VALID,73.7713,VALID,769.2,VALID,27.8911,VALID,180,VALID,3.24883,
2012-08-10, 10:06:05,VALID,1005.63,VALID,0,VALID,74.1832,VALID,770.422,VALID,27.9105,VALID,188,VALID,3.36758,
2012-08-10, 10:07:05,VALID,1005.64,VALID,0,VALID,73.8323,VALID,773.357,VALID,27.8347,VALID,189,VALID,2.34766,
2012-08-10, 10:08:05,VALID,1005.65,VALID,0,VALID,73.5882,VALID,782.078,VALID,27.7936,VALID,203,VALID,3.12461,
2012-08-10, 10:09:05,VALID,1005.63,VALID,0,VALID,78.4478,VALID,779.633,VALID,27.8152,VALID,182,VALID,1.36914,
2012-08-10, 10:10:05,VALID,1005.62,VALID,0,VALID,73.0389,VALID,780.855,VALID,27.8326,VALID,235,VALID,2.58047,
2012-08-10, 10:11:05,VALID,1005.58,VALID,0,VALID,75.1368,VALID,782.567,VALID,27.8911,VALID,217,VALID,1.57148,
2012-08-10, 10:12:05,VALID,1005.6,VALID,0,VALID,72.8482,VALID,782.893,VALID,27.9885,VALID,191,VALID,2.0707,
2012-08-10, 10:13:05,VALID,1005.56,VALID,0,VALID,73.1304,VALID,784.686,VALID,27.9321,VALID,226,VALID,2.71875,
2012-08-10, 10:14:05,VALID,1005.57,VALID,0,VALID,76.121,VALID,785.175,VALID,27.9711,VALID,229,VALID,1.46484,
2012-08-10, 10:15:05,VALID,1005.53,VALID,0,VALID,73.4814,VALID,788.843,VALID,27.9127,VALID,202,VALID,2.52148,
2012-08-10, 10:16:05,VALID,1005.48,VALID,0,VALID,76.6321,VALID,793.326,VALID,27.9321,VALID,232,VALID,0.420703,
2012-08-10, 10:17:05,VALID,1005.47,VALID,0,VALID,74.023,VALID,792.348,VALID,28.1444,VALID,212,VALID,2.08242,
2012-08-10, 10:18:05,VALID,1005.45,VALID,0,VALID,74.0841,VALID,793.978,VALID,28.3025,VALID,189,VALID,1.30234,
2012-08-10, 10:19:05,VALID,1005.45,VALID,0,VALID,73.7865,VALID,795.772,VALID,28.2635,VALID,178,VALID,3.19336,
2012-08-10, 10:20:05,VALID,1005.41,VALID,0,VALID,71.9632,VALID,806.123,VALID,28.3805,VALID,238,VALID,2.04492,
2012-08-10, 10:21:05,VALID,1005.41,VALID,0,VALID,73.2983,VALID,812.97,VALID,28.3783,VALID,225,VALID,2.38125,
2012-08-10, 10:22:05,VALID,1005.42,VALID,0,VALID,72.7871,VALID,800.418,VALID,28.4779,VALID,233,VALID,2.57227,
2012-08-10, 10:23:05,VALID,1005.41,VALID,0,VALID,71.7954,VALID,802.292,VALID,28.4953,VALID,246,VALID,2.56055,
2012-08-10, 10:24:05,VALID,1005.43,VALID,0,VALID,72.1463,VALID,802.781,VALID,28.5148,VALID,219,VALID,2.59375,
2012-08-10, 10:25:05,VALID,1005.4,VALID,0,VALID,71.9709,VALID,802.048,VALID,28.5169,VALID,201,VALID,1.61953,
2012-08-10, 10:26:05,VALID,1005.38,VALID,0,VALID,70.857,VALID,803.922,VALID,28.5776,VALID,233,VALID,1.78594,
2012-08-10, 10:27:05,VALID,1005.37,VALID,0,VALID,75.0224,VALID,807.753,VALID,28.4974,VALID,212,VALID,1.65937,
2012-08-10, 10:28:05,VALID,1005.36,VALID,0,VALID,74.2366,VALID,812.236,VALID,28.4974,VALID,215,VALID,2.38477,
2012-08-10, 10:29:05,VALID,1005.36,VALID,0,VALID,73.3364,VALID,818.105,VALID,28.4194,VALID,267,VALID,1.7457,
2012-08-10, 10:30:05,VALID,1005.35,VALID,0,VALID,74.0993,VALID,820.306,VALID,28.4974,VALID,229,VALID,2.64414,
2012-08-10, 10:31:05,VALID,1005.38,VALID,0,VALID,73.817,VALID,822.262,VALID,28.4974,VALID,224,VALID,3.17344,
2012-08-10, 10:32:05,VALID,1005.36,VALID,0,VALID,73.016,VALID,819.409,VALID,28.3631,VALID,230,VALID,3.53047,
2012-08-10, 10:33:05,VALID,1005.34,VALID,0,VALID,75.3733,VALID,820.061,VALID,28.244,VALID,200,VALID,1.46914,
2012-08-10, 10:34:05,VALID,1005.36,VALID,0,VALID,72.6422,VALID,824.137,VALID,28.244,VALID,219,VALID,3.84141,
2012-08-10, 10:35:05,VALID,1005.36,VALID,0,VALID,75.0834,VALID,823.648,VALID,28.244,VALID,211,VALID,2.32578,
2012-08-10, 10:36:05,VALID,1005.39,VALID,0,VALID,76.9525,VALID,827.479,VALID,28.2245,VALID,243,VALID,1.27461,
2012-08-10, 10:37:05,VALID,1005.36,VALID,0,VALID,76.6779,VALID,849.812,VALID,28.361,VALID,253,VALID,1.31875,
2012-08-10, 10:38:05,VALID,1005.37,VALID,0,VALID,75.2742,VALID,922.436,VALID,28.6144,VALID,242,VALID,0.853125,
2012-08-10, 10:39:05,VALID,1005.36,VALID,0,VALID,74.6105,VALID,290.172,VALID,28.7898,VALID,169,VALID,1.07656,
2012-08-10, 10:40:05,VALID,1005.37,VALID,0,VALID,73.9773,VALID,474.3,VALID,28.8267,VALID,259,VALID,1.60508,
2012-08-10, 10:41:05,VALID,1005.38,VALID,0,VALID,73.161,VALID,461.585,VALID,28.8461,VALID,259,VALID,1.44805,
2012-08-10, 10:42:05,VALID,1005.37,VALID,0,VALID,72.1768,VALID,972.809,VALID,28.8267,VALID,279,VALID,0.899609,
2012-08-10, 10:43:05,VALID,1005.36,VALID,0,VALID,74.3663,VALID,869.619,VALID,28.8483,VALID,212,VALID,2.04102,
2012-08-10, 10:44:05,VALID,1005.36,VALID,0,VALID,71.8564,VALID,916.242,VALID,28.8851,VALID,243,VALID,1.99961,
2012-08-10, 10:45:05,VALID,1005.37,VALID,0,VALID,74.9614,VALID,733.173,VALID,28.8656,VALID,285,VALID,0.958203,
2012-08-10, 10:46:05,VALID,1005.37,VALID,0,VALID,73.5653,VALID,918.035,VALID,28.8851,VALID,244,VALID,1.74805,
2012-08-10, 10:47:05,VALID,1005.33,VALID,0,VALID,76.3041,VALID,528.667,VALID,28.9436,VALID,260,VALID,1.30586,
2012-08-10, 10:48:05,VALID,1005.34,VALID,0,VALID,74.3892,VALID,502.992,VALID,29.0628,VALID,247,VALID,0.991797,
2012-08-10, 10:49:05,VALID,1005.38,VALID,0,VALID,75.03,VALID,891.544,VALID,29.1971,VALID,265,VALID,1.10664,
2012-08-10, 10:50:05,VALID,1005.32,VALID,0,VALID,72.0624,VALID,864.32,VALID,29.3335,VALID,277,VALID,1.61914,
2012-08-10, 10:51:05,VALID,1005.32,VALID,0,VALID,71.3682,VALID,949.334,VALID,29.2556,VALID,236,VALID,2.13945,
2012-08-10, 10:52:05,VALID,1005.29,VALID,0,VALID,73.7026,VALID,836.771,VALID,29.1581,VALID,205,VALID,1.93359,
2012-08-10, 10:53:05,VALID,1005.26,VALID,0,VALID,70.7808,VALID,958.219,VALID,28.9826,VALID,217,VALID,2.16875,
2012-08-10, 10:54:05,VALID,1005.23,VALID,0,VALID,71.5436,VALID,839.379,VALID,29.0628,VALID,212,VALID,3.18438,
2012-08-10, 10:55:05,VALID,1005.25,VALID,0,VALID,74.6486,VALID,944.933,VALID,28.9848,VALID,303,VALID,0.941797,
2012-08-10, 10:56:05,VALID,1005.22,VALID,0,VALID,71.7878,VALID,908.335,VALID,29.1408,VALID,248,VALID,1.93906,
2012-08-10, 10:57:05,VALID,1005.18,VALID,0,VALID,71.6886,VALID,916.649,VALID,29.2795,VALID,246,VALID,1.69062,
2012-08-10, 10:58:04,VALID,1005.19,VALID,0,VALID,70.6511,VALID,913.715,VALID,29.3943,VALID,279,VALID,1.48594,
2012-08-10, 10:59:04,VALID,1005.19,VALID,0,VALID,72.8711,VALID,892.278,VALID,29.5698,VALID,234,VALID,1.17656,
2012-08-10, 11:00:04,VALID,1005.19,VALID,0,VALID,70.3917,VALID,875.569,VALID,29.7258,VALID,221,VALID,1.43633,
2012-08-10, 11:01:04,VALID,1005.2,VALID,0,VALID,70.1399,VALID,876.139,VALID,29.7865,VALID,247,VALID,1.29102,
2012-08-10, 11:02:04,VALID,1005.2,VALID,0,VALID,67.241,VALID,872.064,VALID,29.7865,VALID,220,VALID,1.98594,
2012-08-10, 11:03:04,VALID,1005.23,VALID,0,VALID,71.8107,VALID,876.139,VALID,29.8255,VALID,247,VALID,1.08008,
2012-08-10, 11:04:04,VALID,1005.21,VALID,0,VALID,68.7972,VALID,729.179,VALID,30.0011,VALID,255,VALID,1.51797,
2012-08-10, 11:05:04,VALID,1005.19,VALID,0,VALID,68.4539,VALID,664.624,VALID,30.0183,VALID,278,VALID,1.13633,
2012-08-10, 11:06:04,VALID,1005.23,VALID,0,VALID,69.9111,VALID,937.516,VALID,30.0791,VALID,296,VALID,1.04102,
2012-08-10, 11:07:04,VALID,1005.25,VALID,0,VALID,66.623,VALID,977.699,VALID,29.9988,VALID,218,VALID,2.95586,
2012-08-10, 11:08:04,VALID,1005.2,VALID,0,VALID,69.0948,VALID,711.41,VALID,29.8233,VALID,219,VALID,1.79141,
2012-08-10, 11:09:04,VALID,1005.2,VALID,0,VALID,69.3618,VALID,874.183,VALID,29.5525,VALID,203,VALID,2.06172,
2012-08-10, 11:10:04,VALID,1005.19,VALID,0,VALID,71.7801,VALID,1026.36,VALID,29.4895,VALID,276,VALID,0.529297,
2012-08-10, 11:11:04,VALID,1005.17,VALID,0,VALID,67.302,VALID,1032.8,VALID,29.5503,VALID,235,VALID,3.42773,
2012-08-10, 11:12:04,VALID,1005.17,VALID,0,VALID,70.1018,VALID,978.188,VALID,29.5503,VALID,286,VALID,1.77188,
2012-08-10, 11:13:04,VALID,1005.14,VALID,0,VALID,70.6663,VALID,907.357,VALID,29.6673,VALID,293,VALID,0.974609,
2012-08-10, 11:14:04,VALID,1005.12,VALID,0,VALID,66.9434,VALID,843.454,VALID,29.7843,VALID,275,VALID,2.30586,
2012-08-10, 11:15:04,VALID,1005.08,VALID,0,VALID,67.2486,VALID,964.087,VALID,29.9403,VALID,280,VALID,1.08359,
2012-08-10, 11:16:04,VALID,1005.06,VALID,0,VALID,69.522,VALID,1006.15,VALID,29.9185,VALID,220,VALID,1.24531,
2012-08-10, 11:17:04,VALID,1005.01,VALID,0,VALID,67.7673,VALID,1016.82,VALID,29.9965,VALID,241,VALID,1.09961,
2012-08-10, 11:18:04,VALID,1004.99,VALID,0,VALID,65.9059,VALID,880.296,VALID,30.1938,VALID,244,VALID,1.36445,
2012-08-10, 11:19:04,VALID,1004.98,VALID,0,VALID,70.6816,VALID,932.706,VALID,30.0355,VALID,228,VALID,0.687109,
2012-08-10, 11:20:04,VALID,1004.93,VALID,0,VALID,68.2022,VALID,841.09,VALID,30.2523,VALID,255,VALID,1.11484,
2012-08-10, 11:21:04,VALID,1004.91,VALID,0,VALID,69.1329,VALID,637.155,VALID,30.3499,VALID,281,VALID,0.996875,
2012-08-10, 11:22:04,VALID,1004.92,VALID,0,VALID,64.3649,VALID,710.269,VALID,30.3304,VALID,242,VALID,2.27539,
2012-08-10, 11:23:04,VALID,1004.89,VALID,0,VALID,64.7005,VALID,955.366,VALID,30.1938,VALID,238,VALID,2.03398,
2012-08-10, 11:24:04,VALID,1004.85,VALID,0,VALID,67.6758,VALID,967.837,VALID,29.8818,VALID,238,VALID,1.84648,
2012-08-10, 11:25:04,VALID,1004.79,VALID,0,VALID,67.4088,VALID,785.012,VALID,29.7063,VALID,231,VALID,2.3707,
2012-08-10, 11:26:04,VALID,1004.81,VALID,0,VALID,70.9562,VALID,755.425,VALID,29.6283,VALID,173,VALID,1.11602,
2012-08-10, 11:27:04,VALID,1004.8,VALID,0,VALID,72.7795,VALID,804.819,VALID,29.7648,VALID,241,VALID,1.36563,
2012-08-10, 11:28:04,VALID,1004.79,VALID,0,VALID,68.904,VALID,1004.03,VALID,29.9208,VALID,263,VALID,0.898828,
2012-08-10, 11:29:04,VALID,1004.74,VALID,0,VALID,66.0356,VALID,786.561,VALID,30.0183,VALID,257,VALID,1.29023,